Regional Weather Roundup
Issued by NWS Upton, NY

Current Version | Previous Version | Graphics & Text | Print | Product List | Glossary Off
Versions: 1 2 3 4 5 6 7 8 9 10 11 12 13 14 15 16 17 18 19 20 21 22 23 24 25 26 27 28

000
ASUS41 KOKX 191005
RWROKX

REGIONAL WEATHER ROUNDUP
NATIONAL WEATHER SERVICE NEW YORK NY
600 AM EDT SAT APR 19 2014

NOTE: "FAIR" INDICATES FEW OR NO CLOUDS BELOW 12,000 FEET WITH NO
SIGNIFICANT WEATHER AND/OR OBSTRUCTIONS TO VISIBILITY.

NYZ071-072-176-178-NJZ106-104-191100-
NEW YORK CITY METRO AREA


CITY           SKY/WX    TMP DP  RH WIND       PRES   REMARKS
CENTRAL PARK   MOCLDY    44  34  67 W3        30.25S
LAGUARDIA APRT MOCLDY    43  34  70 SW7       30.23S
KENNEDY INTL   MOCLDY    40  36  86 SW7       30.25S
NEWARK/LIBERTY MOCLDY    40  35  83 SW7       30.24S
TETERBORO      MOCLDY    40  33  76 SW3       30.23S
$$

NYZ177-179-078>081-191100-
LONG ISLAND NEW YORK

CITY           SKY/WX    TMP DP  RH WIND       PRES   REMARKS
FARMINGDALE    MOCLDY    39  35  86 SW6       30.23S WCI  35
ISLIP          MOCLDY    38  34  85 SW3       30.21S
SHIRLEY        MOCLDY    34  32  92 CALM      30.24R FOG
WESTHAMPTON    MOCLDY    30  26  85 CALM      30.24S
MONTAUK POINT    N/A     41  38  89 W6        30.23S
$$

NYZ052-065-067-191100-
HUDSON VALLEY

CITY           SKY/WX    TMP DP  RH WIND       PRES   REMARKS
WHITE PLAINS   MOCLDY    38  32  79 CALM      30.21R
NEWBURGH       CLEAR     43  32  65 SW8       30.22S
MONTGOMERY     PTCLDY    38  31  76 S3        30.22R
POUGHKEEPSIE   PTCLDY    37  30  75 CALM      30.21R
ALBANY         PTCLDY    36  29  75 W6        30.23R WCI  31
$$

NJZ001-105-106-008-010-013-015-019>022-104-191100-
NEW JERSEY

CITY           SKY/WX    TMP DP  RH WIND       PRES   REMARKS
NEWARK/LIBERTY MOCLDY    40  35  83 SW7       30.24S
TETERBORO      MOCLDY    40  33  76 SW3       30.23S
CALDWELL       PTCLDY    37  31  78 CALM      30.24R
MORRISTOWN     PTCLDY    36  32  87 CALM      30.23R
SOMERVILLE     PTCLDY    34  31  88 CALM      30.23S
LINDEN         FAIR      40  36  83 W3        30.26S
SUSSEX         MOCLDY    35  31  85 CALM      30.24R
ANDOVER          N/A     36  33  89 CALM      30.23R
TRENTON        MOCLDY    38  34  85 CALM      30.24S
MILLVILLE      MOCLDY    35  34  96 CALM      30.25S
ATLANTIC CITY  MOCLDY    37  35  92 CALM      30.25F
WRIGHTSTOWN    MOCLDY    37  35  95 SW2       30.23R
TOMS RIVER     MOCLDY    34  30  86 CALM      30.25S
BELMAR         MOCLDY    37  30  75 W6        30.23F WCI  33
$$

PAZ047>061-062-071-191100-
EASTERN PENNSYLVANIA

CITY           SKY/WX    TMP DP  RH WIND       PRES   REMARKS
PHILADELPHIA   MOCLDY    43  37  79 SW3       30.26R
ALLENTOWN      PTCLDY    37  31  78 W3        30.24S
SCRANTON       MOCLDY    35  30  82 S7        30.25R WCI  29
$$

CTZ002-004>006-009-010-012-RIZ004-006-007-MAZ004-011-015-191100-
SOUTHERN NEW ENGLAND
 IN CT

CITY           SKY/WX    TMP DP  RH WIND       PRES   REMARKS
BRADLEY INTL   MOCLDY    37  32  82 CALM      30.20S
HARTFORD       PTCLDY    38  34  85 S5        30.21F WCI  34
DANBURY        MOCLDY    33  31  92 SW3       30.22S
WTRBRY/OXFORD  PTCLDY    34  27  75 N3        30.22S
BRIDGEPORT     MOCLDY    39  36  89 CALM      30.23R
MERIDEN        PTCLDY    34  32  92 CALM      30.22S
NEW HAVEN      MOCLDY    41  36  82 CALM      30.22S
CHESTER        FAIR      36  36 100 CALM      30.21S FOG
GROTON         MOCLDY    38  36  92 CALM      30.22S
WILLIMANTIC    MOCLDY    33  30  88 NE3       30.21F

 IN RI

CITY           SKY/WX    TMP DP  RH WIND       PRES   REMARKS
PROVIDENCE     MOCLDY    39  33  79 CALM      30.20F
BLOCK ISLAND   MOCLDY    39  36  87 W12       30.21F WCI  32
WESTERLY       MOCLDY    38  36  92 CALM      30.22F

 IN MA

CITY           SKY/WX    TMP DP  RH WIND       PRES   REMARKS
BOSTON         PTCLDY    39  31  72 SW10      30.18S WCI  32
WORCESTER      PTCLDY    34  29  82 W12       30.16S WCI  25
WESTFIELD      PTCLDY    30  28  92 S3        30.20S
PROVINCETOWN     N/A     39  36  87 MISG      30.19F
NANTUCKET      MOCLDY    38  34  85 W6        30.20S WCI  33
$$

ANZ330-335-338-340-345-350-353-355-191100-
COASTAL MARINE OBSERVATIONS


STATION/POSITION TIME  SKY/WX   TEMP    WIND        PRES    VSBY  WAVE
                                AIR SEA DIR/SP/G                  HT/PER
                 (UTC)          (F)     (DEG/KT/KT) (MB)    (MI)  (FT/S)
NY HARB ENTRANCE 1000            41 43  110/ 10/ 12 1024.0
4S FIRE IS       0900               44                N/A           4/11
23SW MTP         1000            41 42  270/ 10/ 12 1023.4          5/11
HUDSON CANYON    0900            42 44  290/  6/ 10 1024.7          6/11
EXECUTION ROCKS  1000            43 42  230/  8/ 10   N/A
WESTERN LI SOUND 1000            42     230/  8/ 10   N/A           0
CENTRAL LI SOUND 0900            40 42  240/  8/  8   N/A           1/ 2
EASTERN LI SOUND NOT AVBL
ROBBINS REEF     1000            41     230/  4/  5   N/A
$$


>>>>>>>>>>>>>>>>>>>>>>>>>>>> KEY <<<<<<<<<<<<<<<<<<<<<<<<<<<
>                                                          <
>     SKY/WX - SKY CONDITION/PRESENT WEATHER               <
>     TMP    - TEMPERATURE IN FAHRENHEIT                   <
>     DP     - DEWPOINT IN FAHRENHEIT                      <
>     RH     - RELATIVE HUMIDITY IN PERCENT                <
>     WIND   - DIRECTION AND SPEED IN MPH                  <
>     PRES   - MEAN SEA LEVEL PRESSURE IN INCHES OF HG     <
>     WCI    - WIND CHILL INDEX                            <
>     VSB    - VISIBILITY IN MILES                         <
>     HX     - HEAT INDEX                                  <
>     TC     - TEMPERATURE IN CELSIUS                      <
>     VRB    - VARIABLE WIND DIRECTION                     <
>                                                          <
>>>>>>>>>>>>>>>>>>>>>>>>>>>> KEY <<<<<<<<<<<<<<<<<<<<<<<<<<<





USA.gov is the U.S. government's official web portal to all federal, state and local government web resources and services.